Temp
-12 -12 -12 -12 -12 -12 -12 -13 -13 -13 -13 -13 -13 -13 -13 -13 -13 -14 -14 -14 -14 -14 -14 -14 -14 -14 -14 -14 -14 -14 -14 -15 -15 -15 -15 -15 -15 -16 -16 -16 -16 -16
-12 -12 -12 -12 -12 -12 -12 -13 -13 -13 -13 -13 -13 -13 -13 -13 -14 -14 -14 -14 -14 -14 -14 -14 -14 -14 -14 -14 -14 -15 -15 -15 -15 -15 -15 -15 -15 -16 -16 -16 -16 -16
-12 -12 -12 -12 -12 -12 -13 -13 -13 -13 -13 -13 -13 -13 -13 -14 -14 -14 -14 -14 -14 -14 -14 -14 -14 -14 -14 -14 -14 -15 -15 -15 -15 -15 -15 -15 -15 -16 -16 -16 -16 -16
-12 -12 -12 -12 -12 -13 -13 -13 -13 -13 -13 -13 -13 -14 -14 -14 -14 -14 -14 -14 -14 -14 -14 -14 -14 -14 -14 -14 -15 -15 -15 -15 -15 -15 -15 -15 -16 -16 -16 -16 -16 -16
-12 -12 -12 -12 -12 -13 -13 -13 -13 -13 -13 -13 -14 -14 -14 -14 -14 -14 -14 -14 -14 -14 -14 -14 -14 -14 -14 -14 -15 -15 -15 -15 -15 -15 -15 -16 -16 -16 -16 -16 -16 -16
-12 -12 -12 -12 -12 -13 -13 -13 -13 -13 -13 -14 -14 -14 -14 -14 -14 -14 -14 -14 -14 -14 -14 -14 -14 -14 -14 -15 -15 -15 -15 -15 -15 -15 -16 -16 -16 -16 -16 -16 -16 -16
-12 -12 -12 -12 -12 -13 -13 -13 -13 -14 -14 -14 -14 -14 -14 -14 -14 -14 -14 -14 -14 -14 -14 -14 -14 -14 -14 -15 -15 -15 -15 -15 -15 -15 -16 -16 -16 -16 -16 -16 -16 -17
-12 -12 -12 -12 -13 -13 -13 -13 -14 -14 -14 -14 -13 -13 -14 -14 -14 -14 -14 -14 -14 -14 -14 -14 -14 -14 -15 -15 -15 -15 -15 -15 -15 -15 -16 -16 -16 -16 -16 -16 -17 -17
-12 -12 -12 -12 -13 -13 -13 -13 -14 -14 -13 -13 -13 -13 -14 -14 -14 -14 -14 -14 -14 -14 -14 -14 -14 -14 -15 -15 -15 -15 -15 -15 -15 -15 -16 -16 -16 -16 -16 -17 -17 -17
-12 -12 -12 -13 -13 -13 -13 -13 -13 -13 -13 -13 -13 -13 -14 -14 -14 -14 -14 -14 -14 -14 -14 -14 -14 -15 -15 -15 -15 -15 -15 -15 -15 -16 -16 -16 -16 -16 -17 -17 -17 -17
-12 -12 -13 -13 -13 -13 -13 -13 -13 -13 -13 -13 -13 -13 -14 -14 -14 -14 -14 -14 -14 -14 -14 -14 -14 -15 -15 -15 -15 -15 -15 -15 -16 -16 -16 -16 -16 -16 -17 -17 -17 -17
-12 -13 -13 -13 -13 -13 -13 -13 -13 -13 -13 -13 -13 -13 -14 -14 -14 -14 -14 -14 -14 -14 -14 -14 -14 -15 -15 -15 -15 -15 -15 -15 -16 -16 -16 -16 -16 -17 -17 -17 -17 -17
-13 -13 -13 -13 -13 -13 -13 -13 -13 -13 -13 -13 -13 -13 -14 -14 -14 -14 -14 -14 -14 -14 -14 -14 -14 -15 -15 -15 -15 -15 -15 -16 -16 -16 -16 -16 -17 -17 -17 -17 -17 -17
-13 -13 -13 -13 -13 -13 -13 -13 -13 -13 -13 -13 -13 -13 -14 -14 -14 -14 -14 -14 -14 -14 -14 -14 -15 -15 -15 -15 -15 -15 -15 -16 -16 -16 -16 -17 -17 -17 -17 -17 -17 -18
-12 -13 -13 -13 -13 -13 -13 -13 -13 -13 -13 -13 -13 -13 -14 -14 -14 -14 -14 -14 -14 -14 -14 -14 -15 -15 -15 -15 -15 -15 -15 -16 -16 -16 -17 -17 -17 -17 -17 -17 -17 -18
-12 -13 -13 -13 -13 -13 -13 -13 -13 -13 -13 -13 -13 -14 -14 -14 -14 -14 -14 -14 -14 -14 -14 -15 -15 -15 -15 -15 -15 -15 -15 -16 -16 -16 -17 -17 -17 -17 -17 -17 -17 -18
-12 -13 -13 -13 -13 -13 -13 -13 -13 -13 -13 -13 -13 -14 -14 -14 -14 -14 -14 -14 -14 -14 -15 -15 -15 -15 -15 -15 -15 -15 -15 -16 -16 -16 -16 -17 -17 -17 -17 -17 -18 -18
-12 -13 -13 -13 -13 -13 -13 -13 -13 -13 -13 -14 -14 -14 -14 -14 -14 -14 -14 -14 -14 -15 -15 -15 -15 -15 -15 -15 -15 -15 -16 -16 -16 -16 -17 -17 -17 -17 -17 -17 -18 -18
-12 -13 -13 -13 -13 -13 -13 -13 -13 -13 -14 -14 -14 -14 -14 -14 -14 -14 -14 -14 -14 -15 -15 -15 -15 -15 -15 -15 -15 -15 -16 -16 -16 -16 -17 -17 -17 -17 -17 -18 -18 -18
-13 -13 -13 -13 -13 -13 -13 -13 -13 -13 -14 -14 -14 -14 -14 -14 -14 -14 -14 -14 -14 -15 -15 -15 -15 -15 -15 -15 -15 -16 -16 -16 -16 -16 -17 -17 -17 -17 -17 -18 -18 -18
-13 -13 -13 -13 -13 -13 -13 -13 -13 -14 -14 -14 -14 -14 -14 -14 -14 -14 -14 -14 -15 -15 -15 -15 -15 -15 -15 -15 -15 -16 -16 -16 -16 -16 -17 -17 -17 -17 -17 -17 -18 -18
-13 -13 -13 -13 -13 -13 -13 -13 -13 -14 -14 -14 -14 -14 -14 -14 -14 -14 -14 -14 -15 -15 -15 -15 -15 -15 -15 -15 -16 -16 -16 -16 -16 -16 -17 -17 -17 -17 -17 -18 -18 -18
-13 -13 -13 -13 -13 -13 -13 -13 -13 -14 -14 -14 -14 -14 -14 -14 -14 -14 -15 -15 -15 -15 -15 -15 -15 -15 -15 -16 -16 -16 -16 -16 -16 -16 -16 -17 -17 -17 -17 -18 -18 -18
-13 -13 -13 -13 -13 -13 -13 -13 -14 -14 -14 -14 -14 -14 -14 -15 -15 -15 -15 -15 -15 -15 -15 -15 -15 -15 -16 -16 -16 -16 -16 -16 -16 -16 -16 -16 -17 -17 -17 -18 -18 -18
-13 -13 -13 -13 -13 -13 -13 -14 -14 -14 -14 -14 -14 -14 -14 -15 -15 -15 -15 -15 -15 -15 -15 -15 -15 -16 -16 -16 -16 -16 -16 -16 -16 -16 -16 -16 -17 -17 -17 -17 -18 -18
-13 -13 -13 -13 -13 -13 -13 -14 -14 -14 -14 -14 -14 -14 -14 -15 -15 -15 -15 -15 -15 -15 -15 -15 -15 -16 -16 -16 -16 -16 -16 -16 -16 -16 -16 -16 -17 -17 -17 -17 -18 -18
Height
5795 5794 5792 5791 5789 5787 5785 5784 5782 5781 5779 5777 5776 5774 5772 5770 5768 5766 5764 5762 5760 5758 5756 5754 5752 5750 5747 5745 5743 5740 5738 5736 5733 5731 5729 5727 5724 5722 5719 5717 5714 5712
5795 5793 5792 5790 5788 5786 5785 5784 5782 5781 5779 5777 5775 5773 5770 5768 5766 5765 5763 5761 5759 5757 5755 5753 5751 5749 5746 5744 5741 5739 5736 5734 5732 5729 5727 5725 5722 5720 5718 5715 5713 5710
5794 5792 5790 5789 5788 5786 5785 5784 5782 5780 5778 5776 5774 5772 5769 5767 5765 5764 5762 5760 5758 5756 5754 5752 5750 5748 5745 5743 5740 5737 5735 5733 5730 5728 5725 5723 5721 5718 5716 5713 5711 5708
5793 5791 5790 5789 5788 5787 5785 5784 5782 5780 5778 5775 5773 5771 5769 5767 5765 5764 5762 5760 5758 5756 5753 5751 5749 5746 5744 5741 5739 5736 5734 5732 5729 5727 5724 5722 5719 5717 5714 5712 5709 5706
5792 5791 5790 5789 5788 5787 5785 5783 5781 5779 5777 5775 5773 5771 5769 5767 5766 5764 5762 5760 5758 5755 5753 5750 5748 5745 5742 5740 5737 5735 5733 5731 5728 5726 5723 5721 5718 5715 5713 5710 5707 5704
5792 5791 5790 5789 5787 5786 5784 5783 5780 5778 5776 5774 5772 5771 5769 5768 5766 5764 5762 5760 5757 5755 5752 5750 5747 5744 5742 5739 5737 5734 5732 5730 5728 5725 5722 5720 5717 5714 5711 5708 5705 5701
5791 5790 5789 5788 5786 5785 5783 5781 5779 5778 5776 5774 5773 5772 5770 5768 5766 5764 5762 5759 5757 5754 5751 5749 5747 5744 5741 5739 5736 5734 5731 5729 5726 5724 5721 5718 5715 5712 5709 5706 5702 5698
5791 5790 5789 5787 5785 5784 5782 5780 5779 5778 5777 5775 5774 5772 5770 5768 5766 5764 5761 5759 5756 5753 5751 5748 5746 5743 5741 5738 5736 5733 5731 5728 5725 5722 5719 5716 5713 5710 5707 5703 5699 5695
5791 5789 5788 5786 5785 5783 5782 5781 5780 5779 5777 5776 5774 5772 5770 5768 5766 5763 5761 5758 5755 5753 5750 5748 5745 5742 5740 5737 5735 5733 5730 5727 5724 5720 5717 5714 5711 5708 5704 5700 5697 5693
5790 5789 5787 5786 5784 5783 5782 5781 5780 5779 5778 5776 5774 5772 5770 5768 5765 5763 5760 5758 5755 5752 5750 5747 5745 5742 5739 5737 5735 5732 5728 5725 5722 5719 5715 5712 5709 5705 5702 5698 5694 5690
5789 5788 5787 5785 5784 5783 5783 5782 5781 5779 5778 5776 5774 5772 5770 5768 5765 5763 5760 5757 5755 5752 5750 5747 5744 5742 5739 5737 5734 5730 5727 5724 5720 5717 5714 5710 5707 5703 5699 5696 5692 5688
5789 5788 5787 5785 5784 5784 5783 5782 5781 5779 5778 5776 5774 5772 5769 5767 5765 5763 5760 5757 5755 5752 5749 5746 5743 5741 5738 5736 5733 5729 5726 5722 5719 5715 5712 5708 5705 5701 5697 5693 5689 5685
5789 5788 5787 5785 5785 5784 5783 5782 5781 5779 5777 5775 5773 5771 5769 5766 5764 5762 5759 5757 5754 5751 5748 5745 5742 5740 5737 5734 5731 5728 5724 5721 5717 5714 5710 5706 5703 5699 5695 5691 5687 5683
5789 5788 5786 5786 5785 5784 5783 5782 5780 5778 5777 5775 5773 5770 5768 5766 5763 5761 5758 5756 5753 5750 5747 5744 5742 5739 5736 5733 5730 5726 5723 5719 5716 5712 5708 5705 5701 5697 5693 5689 5685 5680
5789 5787 5786 5785 5785 5784 5782 5781 5779 5778 5776 5774 5772 5770 5767 5765 5763 5760 5758 5755 5753 5750 5747 5744 5741 5738 5735 5732 5729 5725 5721 5718 5714 5710 5707 5703 5699 5695 5691 5687 5682 5678
5788 5787 5785 5785 5784 5783 5782 5780 5778 5777 5775 5773 5771 5769 5766 5764 5762 5760 5757 5754 5752 5749 5746 5743 5740 5737 5734 5731 5727 5724 5720 5716 5712 5709 5705 5701 5697 5693 5689 5685 5680 5675
5787 5786 5785 5784 5783 5782 5781 5779 5777 5775 5773 5771 5769 5767 5765 5763 5761 5758 5756 5753 5751 5748 5745 5742 5739 5736 5733 5730 5726 5722 5718 5714 5711 5707 5703 5699 5695 5692 5687 5682 5677 5673
5785 5785 5784 5783 5782 5781 5780 5778 5776 5774 5772 5770 5768 5766 5764 5762 5760 5757 5755 5752 5750 5747 5744 5741 5738 5735 5732 5728 5725 5721 5717 5713 5709 5705 5701 5697 5694 5689 5685 5680 5675 5670
5784 5783 5783 5782 5781 5780 5778 5776 5774 5773 5771 5769 5767 5765 5763 5761 5759 5756 5753 5751 5748 5746 5743 5740 5737 5734 5730 5727 5723 5719 5715 5711 5707 5703 5700 5696 5691 5687 5682 5679 5674 5669
5783 5782 5782 5781 5780 5779 5777 5775 5773 5771 5770 5768 5766 5764 5762 5760 5758 5755 5752 5750 5747 5745 5742 5739 5736 5733 5729 5726 5722 5718 5714 5709 5705 5702 5698 5694 5689 5685 5681 5677 5672 5667
5782 5781 5781 5780 5779 5777 5775 5774 5772 5770 5768 5766 5764 5762 5761 5759 5756 5754 5751 5749 5746 5743 5741 5738 5735 5731 5728 5724 5720 5716 5712 5708 5704 5700 5696 5692 5688 5684 5680 5675 5671 5666
5781 5780 5779 5778 5777 5775 5774 5772 5771 5769 5767 5765 5763 5761 5759 5757 5755 5752 5750 5748 5745 5742 5740 5737 5733 5730 5727 5723 5719 5715 5711 5707 5703 5699 5695 5691 5687 5683 5678 5673 5669 5664
5779 5779 5778 5777 5775 5774 5772 5771 5769 5767 5766 5764 5762 5760 5758 5756 5754 5751 5749 5746 5744 5741 5738 5735 5732 5729 5725 5722 5718 5714 5710 5706 5702 5698 5694 5690 5686 5682 5677 5672 5667 5662
5778 5777 5776 5775 5773 5772 5771 5769 5768 5766 5764 5762 5760 5758 5756 5754 5752 5750 5747 5745 5742 5740 5737 5734 5731 5727 5724 5720 5716 5713 5709 5704 5701 5697 5693 5688 5684 5680 5676 5671 5665 5660
5776 5775 5774 5773 5772 5770 5769 5767 5766 5764 5762 5760 5759 5757 5755 5753 5750 5748 5746 5743 5741 5738 5735 5733 5729 5726 5722 5719 5715 5711 5707 5703 5699 5695 5691 5687 5682 5678 5674 5669 5664 5659
5774 5773 5772 5771 5770 5768 5767 5765 5764 5762 5760 5759 5757 5755 5753 5751 5749 5746 5744 5741 5739 5737 5734 5731 5728 5724 5721 5717 5713 5709 5705 5701 5698 5694 5689 5685 5681 5676 5672 5667 5663 5658
Wind_Speed
13 13 14 15 16 18 19 20 21 21 22 23 23 24 24 25 26 26 26 26 26 26 26 26 26 27 28 28 29 30 31 31 32 32 32 32 32 32 32 32 33 33
13 14 15 17 18 19 20 20 21 22 22 23 24 25 26 27 27 27 27 27 27 27 26 27 27 28 29 29 30 31 32 32 33 33 33 33 33 33 33 33 33 34
14 15 17 18 19 19 20 21 22 23 24 25 26 27 28 29 29 29 28 28 28 28 28 28 28 29 29 30 31 32 32 33 33 33 34 34 34 33 33 33 33 34
15 16 17 18 18 19 20 21 22 23 24 26 27 28 29 29 29 29 29 28 28 28 28 28 29 30 30 31 31 32 32 33 33 33 33 33 33 33 33 33 34 35
16 16 17 17 18 19 20 21 23 24 25 27 28 29 30 29 29 29 28 28 28 28 28 29 29 30 31 31 32 32 33 33 33 33 33 33 33 33 33 34 34 35
15 16 16 17 18 19 21 22 24 26 27 28 29 29 29 29 29 29 29 28 28 28 29 29 30 30 31 32 32 33 33 33 33 33 33 33 33 33 33 34 35 36
15 16 17 18 19 20 22 24 25 26 27 27 28 28 29 29 29 29 29 29 29 29 29 29 30 30 31 31 32 33 33 33 33 33 33 33 33 33 34 35 36 37
15 16 17 18 20 21 23 24 25 25 25 26 27 27 28 29 29 30 30 30 30 30 30 30 30 31 31 32 32 32 32 32 33 33 33 33 34 34 35 35 37 38
15 16 17 18 20 21 22 23 23 24 25 25 26 27 27 28 29 30 30 30 30 30 30 30 31 32 32 32 32 32 32 32 33 33 33 34 34 34 35 37 38 39
16 16 17 18 20 20 21 21 22 23 24 25 26 26 27 27 29 30 30 30 31 31 30 30 31 31 32 32 32 32 32 33 33 33 33 34 34 35 36 37 38 39
16 16 17 18 19 19 20 20 21 22 23 24 25 26 27 27 28 29 30 30 30 30 30 30 30 31 32 32 32 33 33 33 33 33 33 34 35 36 37 38 38 40
15 16 16 17 18 19 19 19 20 22 23 24 25 26 26 27 28 29 29 30 30 29 30 30 31 31 32 32 33 33 33 33 33 33 34 34 35 36 37 38 39 41
15 15 16 17 17 18 18 19 20 21 22 23 24 25 26 27 28 29 29 30 30 30 30 31 31 32 32 33 33 33 33 33 33 34 34 35 36 37 38 39 40 41
14 14 15 16 17 17 18 18 19 21 22 23 24 25 26 27 28 29 29 30 31 31 31 31 31 32 32 33 33 34 34 34 34 34 35 35 36 37 38 39 41 43
14 14 15 16 17 17 18 18 19 20 22 23 24 25 26 27 27 28 29 30 31 31 31 31 31 32 33 33 34 34 34 34 34 35 35 36 37 38 39 40 42 44
14 15 16 17 17 17 18 18 19 20 22 23 24 25 26 27 27 28 29 30 31 31 31 32 32 32 33 33 34 34 35 35 35 35 36 37 38 38 39 41 43 45
15 15 16 17 17 18 18 19 19 20 22 23 24 25 26 27 27 28 29 30 31 31 32 32 32 32 33 33 34 35 35 35 36 36 37 37 38 38 40 42 44 46
16 16 17 18 18 18 19 19 20 21 22 23 24 25 26 27 28 28 29 30 31 31 32 32 33 33 33 34 34 35 35 36 36 37 37 37 38 40 41 43 45 47
16 17 18 19 19 19 19 20 21 21 22 23 24 25 27 28 28 29 29 30 31 32 32 33 33 33 34 34 35 35 36 36 36 37 37 38 39 41 42 43 45 47
17 17 18 19 19 20 20 21 21 22 23 23 24 25 27 28 29 29 30 31 31 32 33 33 34 34 34 35 35 36 36 37 37 37 38 39 40 41 42 44 46 48
17 18 19 19 20 20 21 21 22 23 23 24 25 26 27 28 29 29 30 31 31 32 33 34 34 35 35 35 36 36 37 37 37 37 37 38 39 40 42 45 46 48
18 19 20 20 20 20 21 22 23 23 24 24 25 26 27 28 29 30 31 31 31 32 33 34 34 35 35 36 36 37 37 37 37 37 37 38 39 40 43 45 47 49
20 20 21 20 20 21 21 22 23 24 24 25 25 26 27 28 29 30 31 32 32 32 33 34 34 35 36 36 37 37 38 38 38 38 38 39 40 41 42 45 47 49
20 21 21 21 21 21 22 22 23 24 25 25 26 26 27 28 29 30 31 32 32 33 33 34 35 35 36 37 37 38 38 39 39 39 39 40 41 42 43 45 47 49
21 22 22 22 21 22 22 23 23 24 25 26 26 26 27 28 28 29 30 31 32 33 34 34 35 36 36 37 38 38 39 39 39 40 40 41 41 42 43 45 47 49
21 22 22 22 22 22 22 23 24 25 25 26 27 27 28 28 28 29 30 31 32 33 34 35 35 36 36 37 38 39 39 40 40 40 41 41 42 42 44 45 47 48
Wind_Direction
351 356 0 5 7 6 6 7 8 9 8 8 7 7 7 7 7 6 4 2 0 359 357 355 353 352 351 351 349 348 347 346 344 342 340 339 337 336 334 332 331 330
360 3 5 9 9 8 8 8 9 10 10 9 8 8 8 8 7 6 4 1 360 358 356 354 354 353 352 351 350 349 347 346 344 342 341 340 338 336 335 333 331 329
6 7 8 10 9 8 9 9 9 10 10 10 10 9 8 8 6 4 2 1 359 357 355 354 354 353 352 351 350 349 348 346 344 343 341 339 338 336 334 332 330 329
8 8 9 9 8 9 10 11 11 11 11 11 10 9 9 8 5 3 1 359 357 355 355 354 354 353 352 352 351 350 348 346 344 342 340 338 337 335 334 332 331 330
7 7 8 8 9 10 11 12 12 12 12 12 11 9 8 6 3 1 359 357 355 355 354 355 354 353 353 352 351 350 347 345 343 341 340 339 337 335 334 333 332 331
3 5 7 6 9 11 12 12 13 12 12 11 10 8 5 3 1 359 358 356 355 355 355 355 355 354 354 352 351 349 346 344 342 341 340 339 338 336 335 334 333 333
360 3 6 6 8 10 11 12 12 11 10 9 7 5 3 2 0 359 357 356 356 357 356 356 355 354 354 352 350 348 345 343 342 342 342 341 340 338 337 336 336 337
358 1 4 6 8 9 10 11 9 8 7 5 3 2 2 1 360 359 358 357 358 358 357 356 355 355 354 352 350 346 344 343 344 344 343 342 341 339 338 338 339 340
357 1 2 5 8 9 8 7 5 4 4 1 0 0 0 360 359 359 359 359 359 358 357 357 356 355 354 351 348 346 345 346 346 345 345 344 342 340 339 340 341 341
356 359 0 4 7 7 5 3 2 1 360 358 358 358 358 359 359 359 359 360 360 359 357 357 356 355 353 350 348 346 347 347 347 347 346 344 342 341 341 342 341 341
354 356 359 2 4 3 1 359 358 358 356 355 356 356 356 357 358 358 358 359 359 358 357 357 357 356 353 350 348 348 348 348 348 347 346 344 343 343 343 342 342 341
350 352 356 359 360 358 356 354 354 354 353 353 353 354 354 355 356 357 358 359 359 358 357 358 357 355 353 350 349 349 349 349 348 348 347 345 345 344 344 343 342 341
347 348 352 355 355 353 350 350 351 351 351 351 351 352 352 353 354 354 357 358 358 357 357 358 357 355 352 351 350 350 350 349 349 349 348 347 345 345 345 344 343 342
343 343 348 350 349 347 346 347 348 348 348 349 349 350 350 351 352 352 355 357 356 356 357 357 356 354 352 351 351 351 351 350 350 350 348 347 346 346 346 345 344 344
340 341 344 345 344 342 342 344 345 345 346 347 347 348 348 349 350 351 353 355 354 355 356 356 355 353 352 352 351 352 352 352 351 351 349 348 347 347 346 345 346 346
338 339 339 338 338 338 339 340 342 344 345 346 346 346 346 347 347 349 352 353 353 353 354 354 353 353 352 352 352 352 352 352 353 352 350 349 349 347 346 347 348 348
336 337 334 332 333 334 335 336 339 342 343 344 344 344 344 344 345 348 350 351 351 352 352 352 352 352 351 351 352 353 353 353 353 352 351 350 348 348 349 349 350 350
333 334 331 329 329 329 331 335 337 340 341 342 343 343 343 341 342 346 349 349 349 350 351 351 351 351 351 351 352 353 353 354 354 353 352 350 349 350 351 351 351 351
329 330 328 325 325 326 330 334 336 337 339 340 342 342 341 339 340 345 347 347 348 348 349 349 349 350 350 351 352 353 353 354 354 354 353 351 351 351 351 352 352 352
325 326 323 322 323 326 330 332 333 335 336 338 340 340 339 338 339 343 345 345 346 347 347 347 348 348 349 350 352 353 353 354 354 354 353 352 352 352 351 352 353 353
322 321 319 320 323 326 329 330 331 333 334 336 338 339 338 336 338 341 343 343 344 345 345 346 346 347 348 349 351 352 353 354 355 354 354 353 352 352 352 353 354 354
320 318 318 320 323 326 327 329 329 331 332 334 336 336 336 335 337 340 341 341 343 344 344 344 345 346 347 349 350 352 353 354 354 354 354 353 353 353 353 353 354 355
318 316 316 319 322 324 326 327 328 329 330 332 333 334 334 334 336 338 339 339 341 342 343 343 344 345 347 348 349 351 352 354 354 354 354 354 354 355 355 354 354 355
316 315 315 318 320 322 324 325 326 327 329 330 331 332 332 333 335 336 337 338 339 340 341 342 342 344 346 348 348 349 351 353 353 353 353 354 355 355 356 355 355 355
314 314 314 316 318 320 322 323 324 325 326 328 329 330 330 332 334 335 336 336 337 338 339 340 341 343 345 347 348 349 351 352 353 353 353 354 355 355 356 356 356 355
313 314 314 315 316 318 320 321 323 323 325 326 327 328 329 331 332 333 335 335 336 337 337 338 340 342 344 346 347 349 350 351 352 353 353 354 355 355 356 356 357 356